EW2690 Weather Reports


Display with metric or nautical units.
time (UTC)temp
F
wind
direction
speed
MPH
gust
MPH
rain 1hr
in
rain 24hr
in
rain mn
in
humidity
%
barometer
mb
20260504050332 53 194 8.0 13.0 0.00 0.00 0.00 59 1020.6
20260504043030 53 194 4.0 10.0 0.00 0.00 0.00 60 1020.8
20260504040346 52 207 2.0 7.0 0.00 0.00 0.00 61 1021.0
20260504040010 51 207 3.0 6.0 0.00 0.00 0.00 61 1021.1
20260504033035 51 234 3.0 8.0 0.00 0.00 0.00 65 1021.4
20260504030414 52 261 2.0 8.0 0.00 0.00 0.00 67 1021.8
20260504030034 52 279 3.0 8.0 0.00 0.00 0.00 67 1021.8
20260504023012 54 240 3.0 7.0 0.00 0.00 0.00 52 1021.8
20260504020348 54 212 3.0 7.0 0.00 0.00 0.00 51 1021.8
20260504020019 54 215 2.0 6.0 0.00 0.00 0.00 51 1021.7
20260504013016 55 252 3.0 10.0 0.00 0.00 0.00 50 1021.4
20260504010319 56 221 5.0 11.0 0.00 0.00 0.00 48 1021.3
20260504003024 58 240 4.0 12.0 0.00 0.00 0.00 46 1021.2
20260504000409 59 360 6.0 14.0 0.00 0.00 0.00 46 1021.1
20260504000326 59 360 6.0 14.0 0.00 0.00 0.00 46 1021.1
20260504000042 59 215 6.0 18.0 0.00 0.00 0.00 46 1021.2
20260503233047 60 259 7.0 17.0 0.00 0.00 0.00 43 1021.2
20260503230343 60 248 9.0 13.0 0.00 0.00 0.00 43 1021.3
20260503230105 61 229 7.0 16.0 0.00 0.00 0.00 44 1021.3
20260503223021 62 203 8.0 18.0 0.00 0.00 0.00 42 1021.4
20260503220322 62 227 5.0 15.0 0.00 0.00 0.00 42 1021.5
20260503220014 62 244 4.0 17.0 0.00 0.00 0.00 42 1021.5
20260503213038 61 263 7.0 18.0 0.00 0.00 0.00 44 1021.5
20260503210311 61 289 10.0 18.0 0.00 0.00 0.00 42 1021.4
20260503210036 62 254 6.0 15.0 0.00 0.00 0.00 43 1021.3
20260503203033 62 272 7.0 22.0 0.00 0.00 0.00 44 1021.6
20260503200324 62 290 8.0 21.0 0.00 0.00 0.00 45 1022.0
20260503200047 62 273 6.0 21.0 0.00 0.00 0.00 45 1022.1
20260503193042 62 234 12.0 24.0 0.00 0.00 0.00 41 1022.5
20260503190316 61 333 11.0 20.0 0.00 0.00 0.00 41 1023.0
20260503190056 61 302 8.0 20.0 0.00 0.00 0.00 40 1023.0
20260503183031 61 239 11.0 23.0 0.00 0.00 0.00 42 1023.4
20260503180334 61 266 13.0 24.0 0.00 0.00 0.00 43 1023.6
20260503180024 61 320 8.0 17.0 0.00 0.00 0.00 43 1023.7
20260503170317 59 242 9.0 22.0 0.00 0.00 0.00 43 1024.1
20260503160109 57 284 7.0 22.0 0.00 0.00 0.00 45 1024.8
20260503150316 55 250 10.0 17.0 0.00 0.00 0.00 46 1025.2
20260503130312 47 257 5.0 11.0 0.00 0.00 0.00 55 1026.0
20260503120125 43 252 4.0 8.0 0.00 0.00 0.00 70 1026.0
20260503110355 38 247 3.0 8.0 0.00 0.00 0.00 81 1025.5
20260503100106 37 242 2.0 5.0 0.00 0.01 0.00 82 1025.3
20260503090311 37 228 2.0 7.0 0.00 0.01 0.00 83 1025.4
20260503080406 36 194 3.0 5.0 0.00 0.02 0.00 83 1025.5
20260503070318 37 192 3.0 5.0 0.00 0.03 0.00 83 1025.5